STARLINK-3820 (52364 NORAD) Tracking and Keplerian Element Data

This shows tracking and keplerian element data for the satellite.

Feedback or suggestion? Click here.




ElementValue
Catalog52364
NameSTARLINK-3820
Epoch Orbit130
Epoch Day167.08334491
Epoch Year2022
RAAN202.6709
Inclination53.2139
Eccentricity0.0002913
Argument of Perigee13.2381
Mean Anonmoly290.3742
Mean Motion15.73179145
Decay Rate0.00078474
L11 52364U 22045AK 22167.08334491 .00078474 00000+0 55876-3 0 9996
L22 52364 53.2139 202.6709 0002913 13.2381 290.3742 15.73179145 1308

Live tracking and technical data element details for STARLINK-3820 (NORAD 52364). STARLINK-3820 can be tracked NOW for your location showing map with azimuth and elevation plus other details from your city location.

Track the satellite on the map from your city or location and see movement details for azimuth, elevation, latitude, longitude, range, height, and movement on the map or in text.







IsCatalogInMostPopularTable: catalog: 52364, numindb: 1
Update: records affected: 1



GetName: 52364 STARLINK-3820

Hit Count: updated at: Mon, 27 Jun 2022 05:40:05 GMT